Location: Barruelo
(41.2448°N, 3.8231°W)
Time: 18:43:53
(UTC+00:00)

SL-08 R/B - Pass Details

Date: 11 December 2025
Orbit: 946 x 992 km, 83.0° (Epoch: 15 January)

Event Time Altitude Azimuth Distance (km) Brightness Sun altitude
Rises 18:39:58 0° 355° (N) 3,705 7.5 -20.6°
Reaches altitude 10° 18:42:32 10° 359° (N) 2,757 6.7 -21.1°
Maximum altitude 18:48:49 62° 80° (E) 1,106 4.4 -22.2°
Drops below altitude 10° 18:55:03 10° 161° (SSE) 2,744 6.8 -23.4°
Sets 18:57:36 0° 164° (SSE) 3,687 7.5 -23.9°
